< < Back
Terminal Aerodrome Forecast


Current Version              Previous Versions:   1  2  3  4  5  6  7  8  9  

Terminal Aerodrome Forecast

632
FTUS42 KTAE 232300
TAFDHN
TAF
KDHN 232320Z 2400/2424 32006KT P6SM FEW070
     FM240300 02003KT P6SM SKC
      TEMPO 2410/2412 5SM BR
     FM241400 19007KT P6SM SCT060=

Latest METAR

361
SAUS70 KWBC 250100 RRI
MTRDHN
METAR KDHN 250053Z 22009KT 10SM CLR 23/15 A2994 RMK AO2 SLP136
T02280150


USA.gov is the U.S. government's official web portal to all federal, state and local government web resources and services.